カタログに戻る

FENGYUN 1C DEB

LostPO
NORAD 38806·DEBRIS·🇨🇳 China

打ち上げ May 10, 1999 から Taiyuan Satellite Launch Center

Loading…

次のパス (今後24時間)

TLE

古いSource: Space-Track

元期: May 12, 2015, 05:37 UTC

1 38806U 99025EUW 15132.23433412 +.00002204 +00000-0 +15398-2 0  9990
2 38806 098.5611 298.2737 0140796 359.9035 001.2428 13.94834523234004

AllMySatでFENGYUN 1C DEBをリアルタイム追跡

Download on the App Store